Flag for Brazil

Past Weather in Santo Antônio de Barcelona, Bahia, Brazil — Yesterday and Last 2 Weeks

Now
59 °F

Fog.


Feels Like: 60 °F
Forecast: 80 / 66 °F
Wind: 3 mph from South

Location: Belo Horizonte Airport

Current Time: Jul 3, 2020 at 8:07:28 am

Latest Report: Jul 3, 2020 at 7:00 am


Visibility: 0 mi

Pressure: 30.09 "Hg

Humidity: 100%

Dew Point: 59 °F

Location of Santo Antônio de BarcelonaLocation

Past Weather in Santo Antônio de Barcelona — Graph

°F

Santo Antônio de Barcelona Temperature Yesterday

Maximum temperature yesterday: 77 °F (at 2:00 pm)
Minimum temperature yesterday: 55 °F (at 4:00 am)
Average temperature yesterday: 67 °F

High & Low Weather Summary for the Past Weeks

 TemperatureHumidityPressure
High79 °F (Jun 26, 2:00 pm)100% (Jun 19, 4:00 am)30.33 "Hg (Jun 19, 4:00 am)
Low52 °F (Jun 18, 7:00 am)34% (Jun 22, 3:00 pm)29.98 "Hg (Jul 1, 2:00 pm)
Average65 °F74%30.15 "Hg
* Reported Jun 18 7:00 am — Jul 3 7:00 am, Santo Antônio de Barcelona. Weather by CustomWeather, © 2020

Note: Actual official high and low records may vary slightly from our data, if they occured in-between our weather recording intervals... More about our weather records

Santo Antônio de Barcelona Weather History for the Previous 24 Hours

Scroll right to see more
 ConditionsComfort  
Time TempWeatherWind HumidityBarometerVisibility
7:00 am
Fri, Jul 3
59 °FFog.3 mph100%30.09 "Hg0 mi
6:17 am59 °FFog.1 mph100%30.07 "Hg0 mi
6:00 am57 °FLight fog.No wind100%30.07 "Hg2 mi
5:00 am59 °FFog.2 mph100%30.07 "Hg0 mi
4:00 am61 °FFog.1 mph100%30.04 "Hg0 mi
3:00 am61 °FFog.3 mph100%30.04 "Hg0 mi
2:00 am63 °FFog.8 mph100%30.07 "Hg1 mi
1:30 am63 °FFog.10 mph100%30.07 "Hg2 mi
1:00 am64 °FPartly cloudy.3 mph94%30.07 "HgN/A
12:00 am63 °FLight rain. Passing clouds.3 mph100%30.07 "HgN/A
11:00 pm
Thu, Jul 2
64 °FPassing clouds.3 mph94%30.09 "HgN/A
10:00 pm66 °FClear.6 mph83%30.07 "Hg10 mi
9:00 pm70 °FClear.5 mph69%30.04 "Hg10 mi
8:00 pm70 °FClear.3 mph69%30.04 "Hg10 mi
7:00 pm72 °FClear.6 mph65%30.04 "Hg10 mi
6:00 pm73 °FPassing clouds.7 mph61%30.01 "HgN/A
5:00 pm73 °FScattered clouds.7 mph61%30.01 "HgN/A
4:00 pm77 °FScattered clouds.10 mph54%29.98 "HgN/A
3:00 pm77 °FPartly sunny.13 mph54%29.98 "HgN/A
2:00 pm77 °FPartly sunny.12 mph54%30.01 "HgN/A
1:00 pm75 °FPassing clouds.9 mph57%30.01 "HgN/A
12:00 pm75 °FPassing clouds.3 mph57%30.07 "HgN/A
11:00 am72 °FPassing clouds.2 mph65%30.09 "HgN/A
10:00 am66 °FScattered clouds.3 mph78%30.09 "HgN/A
9:00 am64 °FScattered clouds.2 mph83%30.09 "Hg6 mi
8:00 am63 °FScattered clouds.2 mph88%30.07 "Hg6 mi
Weather by CustomWeather, © 2020

See weather overview